Theta_e
319 321 322 318 315 314 318 321 317 319 319 315 316 313 310 309 312 316 301 302 302 302 302 310 314 314 315 317 319 321 324 328 331 334 337 340 340 340 339 338 339 339 339 340 343 342 341 338 336
318 318 318 309 312 313 316 315 316 315 315 312 314 314 313 310 305 302 301 301 302 302 302 309 311 312 312 314 317 319 319 323 326 329 332 338 340 340 339 338 338 339 339 340 341 341 339 336 335
316 317 311 310 311 314 316 314 313 310 306 308 312 313 312 306 300 300 300 300 301 301 300 304 308 309 310 311 314 316 317 319 322 325 328 332 338 340 339 338 337 339 339 340 341 340 338 336 334
312 311 308 311 312 309 311 308 311 308 306 302 308 311 300 299 299 299 300 301 301 301 301 300 306 307 309 310 312 313 314 315 318 321 324 328 331 339 340 338 338 338 339 340 340 339 337 335 334
308 305 309 311 311 308 305 304 304 301 301 302 303 307 299 299 299 300 301 301 301 301 300 297 301 305 308 309 309 310 312 312 314 316 320 322 325 331 340 339 338 337 338 341 339 338 336 336 334
304 304 307 310 310 305 303 301 301 299 299 301 301 304 298 299 299 302 302 301 301 300 298 296 296 299 301 304 307 308 309 310 311 312 314 318 321 323 335 340 337 339 337 339 338 337 336 335 333
306 302 305 307 307 304 303 300 299 298 298 298 299 302 296 298 300 302 301 299 299 298 297 296 295 295 296 297 304 304 306 308 308 309 310 316 317 323 324 336 340 337 338 338 337 333 335 334 332
302 301 303 304 305 304 301 301 298 297 297 297 297 296 295 298 300 299 298 298 298 297 296 295 295 295 295 295 297 297 299 301 303 306 307 310 315 319 321 329 339 339 337 338 337 336 333 333 331
304 303 300 303 302 303 300 299 298 297 297 297 298 296 297 298 299 298 298 297 297 296 296 295 294 294 294 295 295 296 297 299 300 305 307 309 309 314 320 322 332 339 337 338 337 336 334 331 329
304 302 302 300 300 301 299 299 298 297 298 298 296 297 298 298 298 297 296 295 295 294 294 294 293 293 293 294 294 295 296 298 302 305 306 308 307 310 313 319 322 335 337 337 338 337 335 332 327
300 300 299 300 299 300 298 298 298 296 297 296 296 296 296 297 296 295 295 294 293 293 293 292 292 292 293 293 293 293 294 296 301 306 307 308 307 306 309 314 317 321 330 338 338 337 335 332 326
299 298 299 299 298 298 298 298 297 296 297 296 295 296 296 296 295 294 294 293 293 293 292 291 291 291 292 292 293 293 294 295 299 304 304 305 306 304 309 311 314 315 318 322 328 335 335 331 325
297 298 297 297 297 296 297 297 297 297 296 296 297 297 295 294 294 294 293 292 292 292 291 290 290 290 290 291 291 292 293 295 298 299 300 301 300 304 307 310 311 312 315 318 323 327 331 330 322
297 297 297 298 298 298 298 298 297 298 296 295 296 295 294 294 293 292 292 292 291 291 291 290 289 289 289 289 290 292 293 294 296 297 297 300 300 303 303 306 309 311 314 316 319 325 327 329 322
297 299 298 298 298 298 296 297 297 297 297 297 296 295 293 293 293 292 292 291 291 290 289 289 289 288 288 288 289 291 292 293 294 294 295 298 300 300 303 305 308 310 312 314 317 324 326 327 323
299 300 303 300 298 298 297 304 300 297 296 297 296 294 293 291 292 291 291 291 290 289 288 288 287 287 287 288 288 289 289 291 292 293 295 297 299 300 302 302 305 306 309 310 313 317 320 324 324
297 303 304 301 298 298 297 300 298 298 296 296 295 293 292 290 290 290 290 290 289 288 288 287 287 287 287 287 287 288 289 290 291 293 295 295 295 296 297 299 300 302 306 308 311 315 315 318 323
305 300 302 301 299 298 298 297 297 296 296 296 294 293 291 290 289 290 289 289 288 288 287 287 286 286 286 286 287 287 287 288 291 292 292 292 292 292 293 296 298 301 304 306 309 311 315 319 322
297 298 299 298 297 298 297 297 298 297 295 295 293 292 290 290 290 289 289 288 288 287 287 286 286 286 286 286 286 286 286 287 288 288 288 289 289 290 292 294 297 299 301 303 307 310 312 316 321
297 297 298 297 296 296 294 295 296 296 295 294 294 293 290 288 287 288 288 288 287 287 287 286 285 285 285 285 285 285 285 286 286 286 287 287 288 289 291 292 294 297 299 302 304 307 310 312 315
296 296 298 298 295 295 294 298 299 298 295 294 294 292 291 290 287 287 287 287 287 287 286 286 285 285 285 285 285 285 285 285 285 285 286 286 287 287 287 289 291 292 294 297 301 303 305 310 312
298 295 296 295 294 298 294 305 297 298 296 294 293 290 290 289 288 287 287 287 287 287 286 285 285 285 284 284 284 284 284 284 284 284 284 285 285 286 286 287 288 290 292 294 296 298 300 304 311
297 293 293 293 292 289 294 292 297 296 298 295 291 289 288 288 288 287 287 287 287 286 286 285 285 284 284 284 284 284 284 283 283 283 283 284 284 285 285 285 286 287 288 290 292 293 297 299 302
293 291 292 289 290 293 295 295 301 298 299 298 293 290 289 288 287 287 288 288 287 286 286 285 285 284 284 283 283 283 283 283 283 283 282 282 283 283 284 284 284 285 286 287 289 291 293 296 299
287 290 297 299 295 304 295 291 298 297 292 293 294 291 289 287 287 286 286 286 286 286 285 285 284 284 283 283 283 283 282 282 282 282 282 282 282 282 282 282 283 284 284 286 287 289 291 292 295
285 290 302 305 301 302 292 296 301 293 288 290 290 288 289 289 287 285 286 286 286 286 286 285 284 284 283 283 283 282 282 282 282 281 281 281 281 281 281 281 282 283 283 284 286 287 289 291 292
289 290 291 291 286 293 294 293 296 294 290 289 288 287 289 288 288 286 286 287 287 287 286 285 284 284 283 282 282 282 282 281 281 281 281 280 280 280 280 280 281 281 282 283 284 286 287 289 291
290 290 293 289 299 298 293 292 302 297 299 291 289 289 289 287 287 286 286 287 287 288 287 285 284 284 283 282 282 282 281 281 281 280 280 280 280 279 279 280 280 280 281 282 283 284 286 287 289
290 289 285 288 293 298 295 300 295 300 298 296 293 291 289 287 287 287 286 286 287 288 287 286 285 283 282 282 281 281 281 280 280 280 280 279 279 279 279 279 279 280 280 281 281 283 284 286 287
283 289 288 299 295 288 291 297 294 295 293 293 294 290 287 286 285 284 287 287 286 287 287 286 285 283 283 282 281 280 280 280 280 280 279 279 278 278 278 278 279 279 279 280 280 281 283 284 286
Wind_Speed
6 5 5 4 5 6 3 3 2 4 4 4 5 8 10 7 4 4 9 13 13 16 18 21 22 25 26 26 27 27 27 25 25 18 16 12 5 2 4 4 4 5 8 11 14 14 16 19 19
7 5 4 3 5 5 2 3 5 2 2 2 7 4 6 4 4 5 2 13 11 14 17 21 21 22 25 25 26 25 27 26 25 26 18 15 8 3 1 4 2 4 7 11 14 11 14 17 18
4 4 4 4 4 4 5 1 4 2 7 4 3 6 4 3 5 3 6 6 7 13 18 20 22 23 22 23 25 26 26 25 24 25 25 16 12 7 3 1 3 4 9 11 12 11 14 16 17
3 5 5 5 6 3 5 3 5 4 4 7 3 8 5 11 3 5 7 5 8 15 19 20 21 23 22 22 24 25 26 25 24 24 25 25 16 9 4 3 4 4 9 11 8 10 13 15 15
4 3 5 5 4 3 2 2 2 4 4 4 2 3 6 4 10 8 9 6 10 15 19 20 21 22 21 20 23 24 24 25 24 23 24 24 24 15 8 7 6 7 9 9 9 9 12 14 13
4 3 5 4 4 3 1 2 3 4 1 1 5 5 2 6 10 15 12 12 12 16 19 21 21 21 22 22 22 22 23 24 25 23 23 22 22 21 11 9 10 10 11 10 9 10 11 12 12
6 5 4 5 6 3 3 2 4 4 2 1 5 5 4 3 14 15 12 11 12 15 18 21 22 23 23 22 23 23 22 22 23 24 24 19 22 20 19 9 12 13 14 13 11 10 11 11 12
4 4 4 3 6 5 4 3 5 4 3 1 2 5 5 8 16 14 12 12 12 15 19 21 22 22 23 23 24 25 25 23 22 23 24 20 18 21 22 13 10 14 16 17 15 12 11 10 11
3 5 3 5 7 6 4 4 2 1 5 0 2 4 13 17 15 13 11 12 15 17 20 21 22 22 22 22 23 22 23 23 23 21 21 22 26 21 20 21 5 12 17 20 20 17 12 11 12
5 4 3 1 3 5 4 3 5 3 2 2 5 11 15 15 11 12 13 12 12 13 16 19 20 20 21 21 20 21 21 23 23 21 21 23 28 22 21 19 20 2 11 20 22 20 15 14 13
3 4 4 2 4 5 5 3 2 5 4 6 8 8 11 15 14 13 10 9 9 8 10 15 17 17 19 19 20 20 20 21 21 20 19 20 24 26 22 20 23 19 7 11 24 24 19 17 14
7 6 5 4 2 4 5 2 1 6 4 7 7 15 12 14 13 11 10 6 4 8 11 12 12 13 14 16 17 18 18 19 19 17 18 20 22 27 24 22 21 24 21 13 1 23 22 19 13
5 3 5 5 5 4 3 3 4 7 8 8 4 10 11 14 14 11 9 5 3 6 9 11 11 13 14 14 14 14 16 17 16 17 17 17 19 22 23 21 19 22 24 22 11 7 26 22 18
3 5 5 3 2 1 1 1 3 5 6 9 8 8 10 15 15 14 9 6 3 5 8 10 10 12 14 15 13 12 13 14 14 17 18 16 16 18 22 23 21 20 22 22 21 7 22 24 20
4 4 3 1 1 1 1 3 7 5 4 7 9 8 8 12 15 12 10 6 2 3 6 9 11 12 14 14 12 12 13 13 15 16 16 15 16 16 20 20 21 19 19 23 25 8 15 25 22
4 4 3 1 2 2 2 7 3 6 7 7 8 8 8 10 14 13 10 6 3 2 4 6 9 11 12 14 13 14 12 12 13 14 14 15 15 17 17 22 22 18 14 20 22 23 12 14 27
6 2 1 4 5 2 2 7 4 2 7 8 8 8 8 7 11 13 11 7 3 1 2 5 8 10 12 13 13 12 12 12 13 12 15 17 17 17 18 21 21 23 20 18 21 21 24 11 24
5 3 2 3 2 2 1 17 13 7 7 10 10 8 9 9 8 17 12 9 5 2 1 4 6 9 10 12 12 10 13 12 11 14 16 18 18 18 19 20 21 18 16 18 20 22 23 10 22
5 4 3 1 3 2 6 14 20 9 8 12 10 10 10 10 16 17 14 10 8 5 2 3 5 8 10 14 17 14 18 15 14 16 16 16 16 19 17 20 20 19 19 19 16 20 20 21 5
4 3 2 1 1 0 6 14 19 14 8 9 13 12 12 8 10 17 17 14 10 8 4 1 3 6 8 11 13 10 11 11 13 14 15 18 19 18 18 18 18 19 17 14 16 16 19 13 17
2 4 3 2 4 3 6 9 5 2 3 3 4 6 12 18 15 13 20 18 13 10 6 3 1 4 7 9 10 12 11 14 18 20 20 19 18 18 17 16 16 17 17 16 14 15 17 14 15
1 0 3 4 4 3 4 5 6 3 7 5 6 7 11 12 9 15 20 20 18 13 9 5 2 1 4 7 9 11 12 13 15 16 17 17 18 18 18 17 18 17 17 17 16 16 17 14 15
3 5 4 3 4 4 1 2 9 4 7 8 10 9 10 12 13 13 22 24 19 15 11 7 5 2 2 4 6 8 9 10 12 15 17 18 18 18 18 19 19 18 19 18 20 19 18 17 14
7 6 6 4 3 1 4 5 6 4 7 1 3 9 10 10 9 16 24 21 20 17 14 11 8 5 3 2 3 4 7 9 11 14 17 19 19 19 20 20 21 20 17 18 18 18 20 20 17
6 5 2 4 2 5 2 2 10 8 5 5 6 10 10 9 9 9 19 24 25 24 20 15 12 10 7 5 4 2 4 5 8 10 13 17 19 21 21 22 21 20 20 17 20 19 20 20 18
4 6 5 7 4 3 3 7 7 6 5 6 5 5 9 11 9 11 22 29 32 28 24 20 16 13 11 9 6 4 4 5 6 9 12 14 16 19 19 21 20 21 20 18 17 17 18 18 22
5 3 3 6 0 3 3 7 11 3 5 3 6 4 10 12 13 15 24 33 34 32 29 25 20 16 14 12 9 7 6 6 7 8 10 12 14 16 19 20 21 20 20 20 17 15 18 20 19
5 2 3 2 2 5 5 5 6 5 10 6 7 11 10 8 10 11 21 31 35 34 30 27 24 21 16 14 13 11 9 8 7 8 10 11 14 17 18 19 20 21 21 20 20 19 17 19 19
3 2 2 2 4 5 2 6 8 12 8 9 12 10 10 11 12 11 19 28 35 34 32 31 28 26 22 19 16 14 12 10 9 9 11 13 14 16 17 18 19 20 21 21 20 20 19 18 21
4 7 6 4 6 4 2 8 4 8 6 5 8 9 7 8 8 7 20 25 31 35 35 35 33 31 28 22 19 17 14 13 11 11 11 12 14 15 16 18 18 19 20 21 21 21 21 20 21
Wind_Direction
26 18 360 36 57 65 55 35 353 38 43 349 312 75 102 49 33 129 73 32 18 7 10 25 15 12 14 15 17 17 20 21 20 15 10 11 5 9 360 0 67 82 122 124 119 115 120 116 108
26 24 41 81 82 73 344 346 93 68 159 67 79 112 53 84 62 101 74 17 12 7 10 23 15 15 12 13 16 15 14 17 16 15 12 356 346 337 58 341 47 113 126 131 120 128 121 120 114
32 18 73 77 81 113 137 88 147 61 37 55 88 53 52 17 46 89 45 30 23 20 10 12 13 15 15 13 15 15 13 12 12 11 14 10 349 335 314 14 294 155 143 143 135 135 132 129 121
21 28 33 71 87 15 128 174 146 119 25 34 106 77 70 12 83 80 70 72 19 21 13 15 18 17 18 17 12 13 13 10 9 9 10 13 11 342 284 202 263 207 169 159 150 141 139 141 131
51 60 64 89 78 120 105 96 75 98 101 13 5 90 111 48 100 86 105 70 30 19 12 16 18 20 20 21 14 11 10 11 7 6 8 8 13 5 300 228 207 234 197 181 170 150 149 155 147
44 90 72 114 117 131 13 5 97 71 31 79 89 105 112 125 98 109 91 67 37 19 12 14 16 20 19 16 16 13 10 8 10 6 5 9 10 11 333 266 216 222 221 199 192 172 167 167 163
102 76 122 119 140 141 177 98 88 103 140 22 145 96 158 154 113 114 90 67 40 18 11 9 9 12 17 18 14 12 12 9 6 5 5 10 19 13 8 308 238 218 221 209 203 201 181 182 179
94 87 97 118 177 177 189 106 134 132 189 242 119 157 187 172 130 106 81 54 27 12 8 8 3 3 8 11 12 14 14 13 7 8 6 14 14 22 15 358 259 225 218 223 211 219 198 191 190
92 65 125 149 158 163 189 135 354 88 121 181 159 119 132 139 133 104 61 24 7 1 358 356 358 1 3 4 5 7 13 14 13 11 9 16 9 11 17 13 323 245 222 220 218 214 209 206 202
65 84 146 359 107 148 135 128 154 133 113 191 88 103 126 131 109 80 65 63 53 21 358 351 349 351 357 0 0 3 8 14 17 16 11 9 7 4 5 17 20 280 231 217 220 216 209 216 193
37 118 144 45 96 92 125 119 153 137 225 207 167 160 137 122 112 104 90 68 61 42 358 355 350 347 350 353 356 1 5 12 16 21 17 6 4 4 355 8 13 29 34 213 221 211 210 216 199
94 52 98 152 77 103 138 134 298 193 228 146 165 168 144 140 134 121 105 79 31 343 347 357 1 354 355 353 354 355 3 9 12 13 11 6 357 357 2 6 1 3 21 9 334 202 208 215 214
74 124 78 111 105 123 137 209 228 238 230 207 143 163 144 140 135 125 118 101 1 353 354 358 357 356 357 359 359 358 2 8 6 8 3 2 354 355 358 358 352 354 1 10 339 195 198 207 197
76 89 116 118 139 102 224 210 43 249 209 219 199 174 163 154 150 138 139 121 48 360 355 354 355 353 355 0 5 6 5 5 7 6 4 5 4 359 352 355 359 359 357 4 11 285 192 206 197
112 75 55 119 141 78 31 243 229 196 144 171 190 180 163 159 157 154 145 128 98 14 351 353 352 351 356 359 3 7 7 3 4 4 3 4 8 360 349 353 355 5 354 356 12 15 208 208 197
60 52 62 334 124 25 48 269 251 197 187 202 189 177 161 167 160 149 146 147 134 6 355 2 352 353 358 1 0 4 6 8 15 11 7 13 10 357 350 345 0 353 359 344 355 13 355 235 203
13 178 215 312 195 84 74 266 259 228 186 205 207 200 170 153 159 157 156 159 145 52 350 357 351 358 1 360 5 9 14 16 18 14 17 9 360 354 352 342 342 343 356 346 354 358 1 314 216
185 175 205 231 211 182 251 268 265 248 213 218 210 209 176 174 181 170 164 163 147 168 307 346 351 356 3 0 8 20 21 33 25 17 10 359 352 354 354 345 346 344 341 358 351 348 353 330 213
109 120 161 34 358 256 225 268 278 264 232 235 218 210 186 183 180 173 171 167 163 182 222 330 352 2 5 9 12 10 13 20 23 15 8 1 359 4 3 357 354 355 347 345 348 348 343 4 210
90 101 252 6 101 312 313 279 274 270 249 215 216 207 182 155 167 175 175 174 179 195 208 295 348 8 13 15 18 17 17 17 17 14 12 10 11 11 7 0 355 357 349 346 353 344 330 322 6
91 152 174 174 324 257 321 284 296 264 272 256 237 195 178 174 175 181 179 179 185 196 208 225 319 7 9 15 13 19 25 22 15 15 14 13 11 11 9 3 359 351 346 349 343 340 341 323 338
154 22 119 87 63 241 17 282 297 265 275 245 236 190 172 171 175 178 179 182 190 196 201 210 213 341 359 8 19 26 26 18 8 7 9 11 12 12 9 7 5 7 355 354 347 330 324 350 332
144 76 80 73 88 41 330 70 272 348 277 241 216 202 188 180 179 182 185 189 191 195 201 207 212 229 327 357 13 22 25 18 8 10 12 11 15 13 9 8 9 5 352 349 343 333 326 324 331
130 65 47 52 84 352 223 146 280 222 213 170 199 203 191 183 186 186 192 189 192 196 204 206 212 220 237 280 334 4 14 8 3 7 7 8 7 7 9 5 358 356 357 348 332 335 330 318 315
68 65 339 340 1 228 121 72 250 268 244 213 210 206 197 187 182 176 181 191 195 198 201 205 211 215 222 232 253 312 350 354 356 1 0 359 358 1 360 354 354 353 352 349 339 333 324 325 319
181 155 173 219 208 255 34 230 245 223 255 249 244 217 191 197 191 194 195 197 203 204 204 204 210 214 220 228 239 267 303 322 342 346 353 356 354 351 348 347 351 349 350 348 341 335 326 323 321
218 180 187 98 79 45 240 288 294 269 265 282 240 197 208 203 200 204 203 205 208 209 209 210 211 216 222 227 235 248 267 294 315 332 343 343 346 346 343 346 346 348 346 342 341 332 326 319 316
152 166 67 358 234 263 284 279 241 287 236 200 239 224 220 207 201 204 207 211 215 215 215 215 218 221 224 229 232 239 249 266 291 313 326 334 338 341 344 345 344 344 344 345 341 333 323 327 318
130 229 19 135 164 196 254 256 219 226 217 207 223 220 217 208 210 206 209 215 219 219 217 218 219 219 220 226 231 236 244 256 272 293 313 325 332 337 339 341 341 342 342 342 338 331 327 319 317
181 199 163 157 239 225 158 263 246 239 260 237 241 221 227 210 205 209 212 214 218 222 220 220 220 221 222 225 228 234 241 249 262 279 297 311 322 329 333 335 337 339 339 338 335 327 321 317 312